CW8371 Weather Reports


Display with metric or nautical units.
time (UTC)temp
F
wind
direction
speed
MPH
gust
MPH
rain 1hr
in
rain 24hr
in
rain mn
in
humidity
%
barometer
mb
20220809041504 79 212 0.0 1.0 0.00 0.02 0.00 88 1009.1
20220809041005 79 212 0.0 1.0 0.00 0.02 0.00 90 1009.2
20220809040503 78 0 0.0 0.0 0.01 0.02 0.00 91 1009.2
20220809040005 78 0 0.0 0.0 0.02 0.02 0.00 92 1009.3
20220809035503 79 0 0.0 0.0 0.02 0.02 0.02 92 1009.3
20220809035004 79 0 0.0 0.0 0.02 0.02 0.02 91 1009.3
20220809034504 79 0 0.0 0.0 0.02 0.02 0.02 91 1009.4
20220809034003 79 0 0.0 0.0 0.02 0.02 0.02 90 1009.3
20220809033504 79 0 0.0 0.0 0.02 0.02 0.02 89 1009.2
20220809033004 80 0 0.0 0.0 0.02 0.02 0.02 88 1009.4
20220809032503 80 0 0.0 0.0 0.02 0.02 0.02 86 1009.4
20220809032003 80 0 0.0 0.0 0.02 0.02 0.02 85 1009.5
20220809031504 81 219 0.0 6.0 0.02 0.02 0.02 84 1009.6
20220809031003 82 223 1.0 7.0 0.02 0.02 0.02 82 1009.7
20220809030503 82 227 2.0 8.0 0.01 0.01 0.01 80 1009.8
20220809030004 83 220 2.0 8.0 0.00 0.00 0.00 78 1009.8
20220809025503 83 196 1.0 8.0 0.00 0.00 0.00 77 1009.6
20220809025003 83 168 2.0 11.0 0.00 0.00 0.00 77 1009.6
20220809024504 83 164 2.0 11.0 0.00 0.00 0.00 77 1009.4
20220809024004 83 159 1.0 8.0 0.00 0.00 0.00 77 1009.1
20220809023503 83 156 1.0 8.0 0.00 0.00 0.00 77 1009.3
20220809023004 83 156 2.0 8.0 0.00 0.00 0.00 77 1009.3
20220809022003 83 162 3.0 10.0 0.00 0.00 0.00 77 1009.0
20220809021503 83 166 2.0 10.0 0.00 0.00 0.00 76 1009.1
20220809021004 83 160 2.0 10.0 0.00 0.00 0.00 76 1009.0
20220809020503 83 159 3.0 10.0 0.00 0.00 0.00 76 1009.0
20220809020004 83 159 2.0 12.0 0.00 0.00 0.00 75 1008.9
20220809015504 84 161 3.0 15.0 0.00 0.00 0.00 75 1009.0
20220809015004 84 158 4.0 15.0 0.00 0.00 0.00 75 1008.7
20220809014504 84 153 2.0 10.0 0.00 0.00 0.00 74 1008.8
20220809014003 84 159 2.0 11.0 0.00 0.00 0.00 74 1008.9
20220809013504 84 160 3.0 11.0 0.00 0.00 0.00 73 1009.0
20220809013004 84 159 3.0 13.0 0.00 0.00 0.00 73 1009.0
20220809012504 85 155 3.0 13.0 0.00 0.00 0.00 73 1009.1
20220809012003 85 150 4.0 14.0 0.00 0.00 0.00 72 1009.1
20220809011505 85 154 5.0 14.0 0.00 0.00 0.00 72 1009.0
20220809011003 85 160 3.0 13.0 0.00 0.00 0.00 71 1009.1
20220809010504 86 172 1.0 9.0 0.00 0.00 0.00 70 1009.0
20220809010003 86 182 2.0 9.0 0.00 0.00 0.00 70 1009.0
20220809005503 86 193 2.0 9.0 0.00 0.00 0.00 69 1008.9
20220809005003 86 211 2.0 7.0 0.00 0.00 0.00 68 1008.9
20220809004504 87 192 2.0 11.0 0.00 0.00 0.00 68 1009.0
20220809004003 87 165 3.0 15.0 0.00 0.00 0.00 67 1009.0
20220809003503 87 163 5.0 15.0 0.00 0.00 0.00 67 1009.1
20220809003003 87 169 3.0 13.0 0.00 0.00 0.00 66 1009.1
20220809002504 87 188 1.0 8.0 0.00 0.00 0.00 66 1009.1
20220809002004 88 215 1.0 6.0 0.00 0.00 0.00 64 1008.9
20220809001504 88 214 2.0 10.0 0.00 0.00 0.00 63 1009.0
20220809001004 88 189 3.0 10.0 0.00 0.00 0.00 63 1008.9
20220809000504 88 166 3.0 11.0 0.00 0.00 0.00 63 1008.9
20220809000003 88 165 3.0 11.0 0.00 0.00 0.00 62 1008.9
20220808235505 88 194 3.0 14.0 0.00 0.00 0.00 62 1008.9
20220808235003 89 209 3.0 14.0 0.00 0.00 0.00 61 1008.8
20220808234503 89 223 3.0 15.0 0.00 0.00 0.00 61 1008.9
20220808234004 89 198 4.0 15.0 0.00 0.00 0.00 60 1008.8
20220808233503 89 178 3.0 12.0 0.00 0.00 0.00 59 1008.8
20220808233003 90 172 2.0 19.0 0.00 0.00 0.00 59 1008.7
20220808232504 90 176 3.0 19.0 0.00 0.00 0.00 59 1008.6
20220808232008 90 180 2.0 8.0 0.00 0.00 0.00 59 1008.6
20220808231504 90 175 3.0 12.0 0.00 0.00 0.00 58 1008.4
20220808231004 91 173 3.0 12.0 0.00 0.00 0.00 57 1008.4
20220808230503 91 181 3.0 9.0 0.00 0.00 0.00 57 1008.2
20220808230004 91 197 4.0 11.0 0.00 0.00 0.00 56 1008.3
20220808225503 92 206 4.0 18.0 0.00 0.00 0.00 56 1008.4
20220808225003 92 198 3.0 18.0 0.00 0.00 0.00 56 1008.3
20220808224505 92 176 3.0 14.0 0.00 0.00 0.00 58 1008.3
20220808224004 92 176 3.0 16.0 0.00 0.00 0.00 56 1008.1
20220808223503 92 169 3.0 16.0 0.00 0.00 0.00 57 1008.3
20220808223004 93 159 4.0 15.0 0.00 0.00 0.00 57 1008.1
20220808222503 93 161 5.0 17.0 0.00 0.00 0.00 55 1008.1
20220808222004 94 177 3.0 17.0 0.00 0.00 0.00 53 1008.3
20220808221504 94 207 2.0 10.0 0.00 0.00 0.00 52 1008.0
20220808221003 94 187 2.0 10.0 0.00 0.00 0.00 50 1008.1
20220808220504 95 202 2.0 9.0 0.00 0.00 0.00 49 1008.1
20220808220006 95 221 3.0 9.0 0.00 0.00 0.00 49 1008.1
20220808215503 95 224 3.0 8.0 0.00 0.00 0.00 48 1008.1
20220808215003 95 243 3.0 13.0 0.00 0.00 0.00 50 1008.2
20220808214004 96 193 4.0 13.0 0.00 0.00 0.00 49 1008.3
20220808213503 96 189 3.0 13.0 0.00 0.00 0.00 48 1008.3
20220808213004 96 223 2.0 10.0 0.00 0.00 0.00 50 1008.3
20220808212504 96 246 2.0 10.0 0.00 0.00 0.00 48 1008.6
20220808212003 96 221 2.0 9.0 0.00 0.00 0.00 50 1008.7
20220808211503 96 212 3.0 10.0 0.00 0.00 0.00 50 1008.8
20220808211003 96 219 3.0 10.0 0.00 0.00 0.00 51 1008.8
20220808210504 96 201 4.0 20.0 0.00 0.00 0.00 47 1008.8
20220808210004 96 182 3.0 20.0 0.00 0.00 0.00 49 1008.8
20220808205504 96 173 4.0 15.0 0.00 0.00 0.00 48 1008.9
20220808205003 96 180 3.0 15.0 0.00 0.00 0.00 50 1008.9
20220808204504 96 209 3.0 14.0 0.00 0.00 0.00 50 1008.9
20220808204003 96 210 4.0 14.0 0.00 0.00 0.00 48 1008.9
20220808203505 96 208 4.0 15.0 0.00 0.00 0.00 48 1009.0
20220808203003 95 217 5.0 15.0 0.00 0.00 0.00 49 1008.9
20220808202503 96 215 5.0 13.0 0.00 0.00 0.00 48 1009.0
20220808202004 96 198 3.0 13.0 0.00 0.00 0.00 48 1009.1
20220808201503 97 242 3.0 10.0 0.00 0.00 0.00 46 1009.1
20220808201004 96 246 4.0 12.0 0.00 0.00 0.00 48 1009.0
20220808200505 96 227 3.0 12.0 0.00 0.00 0.00 49 1009.2
20220808200004 95 235 3.0 11.0 0.00 0.00 0.00 48 1009.2
20220808195503 95 231 4.0 11.0 0.00 0.01 0.00 48 1009.3
20220808195005 96 229 4.0 15.0 0.00 0.20 0.00 47 1009.4
20220808194505 96 197 4.0 20.0 0.00 0.25 0.00 47 1009.5
20220808194004 96 169 3.0 20.0 0.00 0.26 0.00 47 1009.5
20220808193504 97 173 2.0 13.0 0.00 0.26 0.00 47 1009.5
20220808193003 96 230 3.0 13.0 0.00 0.26 0.00 48 1009.5
20220808192505 96 233 5.0 12.0 0.00 0.26 0.00 47 1009.5
20220808192004 96 221 4.0 11.0 0.00 0.26 0.00 47 1009.6
20220808191504 96 266 5.0 16.0 0.00 0.26 0.00 49 1009.8
20220808191004 96 265 6.0 16.0 0.00 0.26 0.00 47 1009.7
20220808190504 96 241 5.0 12.0 0.00 0.26 0.00 47 1009.9
20220808190006 96 236 3.0 12.0 0.00 0.26 0.00 47 1009.8
20220808185504 96 245 3.0 12.0 0.00 0.26 0.00 48 1010.0
20220808185005 95 262 3.0 14.0 0.00 0.26 0.00 48 1010.1
20220808184504 96 219 3.0 14.0 0.00 0.26 0.00 48 1010.2
20220808184004 96 173 3.0 14.0 0.00 0.26 0.00 46 1010.4
20220808183504 96 195 3.0 14.0 0.00 0.26 0.00 48 1010.3
20220808183004 96 260 4.0 11.0 0.00 0.26 0.00 47 1010.3
20220808182504 95 268 5.0 14.0 0.00 0.26 0.00 49 1010.4
20220808182005 95 260 4.0 14.0 0.00 0.26 0.00 48 1010.3
20220808181504 95 254 5.0 14.0 0.00 0.26 0.00 50 1010.4
20220808181005 95 224 5.0 14.0 0.00 0.26 0.00 50 1010.6
20220808180504 95 204 3.0 12.0 0.00 0.26 0.00 49 1010.6
20220808180005 95 259 2.0 8.0 0.00 0.26 0.00 50 1010.6
20220808175504 95 264 3.0 12.0 0.00 0.26 0.00 52 1010.7
20220808175004 94 250 4.0 12.0 0.00 0.26 0.00 52 1010.8
20220808174504 94 232 3.0 9.0 0.00 0.26 0.00 51 1010.9
20220808174004 94 204 3.0 14.0 0.00 0.26 0.00 52 1011.0
20220808173504 94 204 4.0 16.0 0.00 0.26 0.00 50 1011.1
20220808173004 95 211 4.0 16.0 0.00 0.26 0.00 51 1011.1
20220808172505 94 206 4.0 11.0 0.00 0.26 0.00 52 1011.0
20220808172004 94 217 4.0 11.0 0.00 0.26 0.00 52 1011.0
20220808171504 94 245 4.0 19.0 0.00 0.26 0.00 53 1011.2
20220808171004 94 262 4.0 19.0 0.00 0.26 0.00 56 1011.1
20220808170504 94 266 5.0 13.0 0.00 0.26 0.00 53 1011.1
20220808170004 93 258 6.0 14.0 0.00 0.26 0.00 55 1011.4
20220808165504 93 248 5.0 14.0 0.00 0.26 0.00 52 1011.6
20220808165005 93 223 4.0 14.0 0.00 0.26 0.00 54 1011.4
20220808164505 93 210 4.0 11.0 0.00 0.26 0.00 55 1011.5
20220808164005 93 220 4.0 12.0 0.00 0.26 0.00 53 1011.6
20220808163504 93 226 4.0 12.0 0.00 0.26 0.00 56 1011.6
20220808163004 92 201 3.0 12.0 0.00 0.26 0.00 57 1011.8
20220808162504 94 176 2.0 12.0 0.00 0.26 0.00 55 1011.9
20220808162006 93 236 3.0 16.0 0.00 0.26 0.00 55 1011.8
20220808161504 93 253 4.0 16.0 0.00 0.26 0.00 56 1011.8
20220808161005 92 249 3.0 14.0 0.00 0.26 0.00 55 1012.0
20220808160504 92 247 3.0 10.0 0.00 0.26 0.00 57 1012.0
20220808160004 93 253 2.0 9.0 0.00 0.26 0.00 55 1012.0
20220808155504 92 260 3.0 9.0 0.00 0.26 0.00 60 1011.9
20220808155004 92 267 4.0 13.0 0.00 0.26 0.00 57 1012.1
20220808154505 91 269 4.0 13.0 0.00 0.26 0.00 61 1012.1
20220808154005 91 263 4.0 9.0 0.00 0.26 0.00 59 1012.1
20220808153504 92 262 3.0 9.0 0.00 0.26 0.00 61 1012.2
20220808153004 92 264 2.0 7.0 0.00 0.26 0.00 63 1012.2
20220808152504 91 264 3.0 7.0 0.00 0.26 0.00 61 1012.3
20220808152004 91 266 3.0 10.0 0.00 0.26 0.00 62 1012.4
20220808151504 91 270 5.0 11.0 0.00 0.26 0.00 62 1012.5
20220808151004 90 273 5.0 11.0 0.00 0.26 0.00 61 1012.5
20220808150505 90 275 4.0 11.0 0.00 0.26 0.00 63 1012.6
20220808150005 90 267 5.0 12.0 0.00 0.26 0.00 63 1012.6
20220808145504 90 254 4.0 12.0 0.00 0.26 0.00 65 1012.6
20220808145004 90 244 2.0 9.0 0.00 0.26 0.00 64 1012.7
20220808144504 90 246 1.0 9.0 0.00 0.26 0.00 64 1012.7
20220808144004 90 247 1.0 5.0 0.00 0.26 0.00 65 1012.7
20220808143504 89 245 2.0 8.0 0.00 0.26 0.00 64 1012.7
20220808143005 89 245 2.0 8.0 0.00 0.26 0.00 65 1012.7
20220808142505 89 254 1.0 7.0 0.00 0.26 0.00 67 1012.7
20220808142004 88 264 2.0 7.0 0.00 0.26 0.00 70 1012.9
20220808141504 88 263 4.0 12.0 0.00 0.26 0.00 67 1012.9
20220808141006 87 257 4.0 12.0 0.00 0.26 0.00 68 1013.0
20220808140505 87 240 3.0 9.0 0.00 0.26 0.00 67 1013.0
20220808140004 87 224 3.0 9.0 0.00 0.26 0.00 69 1013.0
20220808135504 87 214 3.0 6.0 0.00 0.26 0.00 69 1013.0
20220808135005 87 212 2.0 6.0 0.00 0.26 0.00 69 1013.0
20220808134504 86 216 1.0 7.0 0.00 0.26 0.00 71 1013.1
20220808134004 86 228 1.0 7.0 0.00 0.26 0.00 71 1013.2
20220808133504 86 246 2.0 5.0 0.00 0.26 0.00 70 1013.2
20220808133004 86 245 2.0 7.0 0.00 0.26 0.00 72 1013.2
20220808132505 85 244 2.0 9.0 0.00 0.26 0.00 72 1013.4
20220808132004 85 245 2.0 9.0 0.00 0.26 0.00 73 1013.6
20220808131506 85 246 2.0 8.0 0.00 0.26 0.00 74 1013.4
20220808131004 84 236 2.0 10.0 0.00 0.26 0.00 74 1013.5
20220808130504 84 218 3.0 10.0 0.00 0.26 0.00 72 1013.6
20220808130004 84 201 2.0 8.0 0.00 0.26 0.00 74 1013.5
20220808125504 84 191 1.0 5.0 0.00 0.26 0.00 76 1013.6
20220808125004 83 191 1.0 5.0 0.00 0.26 0.00 76 1013.7
20220808124505 83 190 1.0 5.0 0.00 0.26 0.00 77 1013.7
20220808123503 82 189 0.0 4.0 0.00 0.26 0.00 78 1013.8
20220808123003 82 189 1.0 3.0 0.00 0.26 0.00 78 1013.9
20220808122503 82 189 1.0 4.0 0.00 0.26 0.00 78 1013.9
20220808122003 82 187 1.0 6.0 0.00 0.26 0.00 78 1013.9
20220808121504 82 183 2.0 6.0 0.00 0.26 0.00 78 1014.0
20220808121003 81 179 1.0 6.0 0.00 0.26 0.00 79 1014.0
20220808120503 81 178 0.0 6.0 0.00 0.26 0.00 79 1014.0
20220808120003 81 177 0.0 4.0 0.00 0.26 0.00 81 1013.9
20220808115504 80 177 0.0 4.0 0.00 0.26 0.00 81 1013.9
20220808115004 80 0 0.0 0.0 0.00 0.26 0.00 82 1014.0
20220808114503 80 0 0.0 0.0 0.00 0.26 0.00 83 1014.0
20220808114003 79 0 0.0 0.0 0.00 0.26 0.00 83 1014.1
20220808113504 79 0 0.0 0.0 0.00 0.26 0.00 84 1014.0
20220808113005 78 0 0.0 0.0 0.00 0.26 0.00 85 1013.9
20220808112504 78 0 0.0 0.0 0.00 0.26 0.00 86 1014.0
20220808112003 77 0 0.0 0.0 0.00 0.26 0.00 87 1014.0
20220808111503 77 0 0.0 0.0 0.00 0.26 0.00 89 1014.1
20220808111004 76 0 0.0 0.0 0.00 0.26 0.00 89 1014.0
20220808110503 76 0 0.0 0.0 0.00 0.26 0.00 91 1014.1
20220808110004 75 0 0.0 0.0 0.00 0.26 0.00 92 1014.1
20220808105503 75 0 0.0 0.0 0.00 0.26 0.00 93 1014.1
20220808105004 74 0 0.0 0.0 0.00 0.26 0.00 93 1014.0
20220808104503 74 0 0.0 0.0 0.00 0.26 0.00 93 1013.9
20220808104006 74 0 0.0 0.0 0.00 0.26 0.00 93 1013.8
20220808103505 74 0 0.0 0.0 0.00 0.26 0.00 94 1013.8
20220808103005 74 0 0.0 0.0 0.00 0.26 0.00 94 1013.9
20220808102504 74 0 0.0 0.0 0.00 0.26 0.00 94 1013.8
20220808102003 74 0 0.0 0.0 0.00 0.26 0.00 94 1013.9
20220808101505 74 0 0.0 0.0 0.00 0.26 0.00 94 1013.9
20220808101003 74 0 0.0 0.0 0.00 0.26 0.00 94 1013.9
20220808100503 74 0 0.0 0.0 0.00 0.26 0.00 94 1014.0
20220808100003 74 0 0.0 0.0 0.00 0.26 0.00 93 1013.9
20220808095503 74 0 0.0 0.0 0.00 0.26 0.00 93 1013.8
20220808095004 74 0 0.0 0.0 0.00 0.26 0.00 93 1013.8
20220808094504 74 0 0.0 0.0 0.00 0.26 0.00 93 1013.7
20220808094003 74 0 0.0 0.0 0.00 0.26 0.00 93 1013.7
20220808093504 74 0 0.0 0.0 0.00 0.26 0.00 93 1013.8
20220808093003 74 0 0.0 0.0 0.00 0.26 0.00 93 1013.7
20220808092504 74 0 0.0 0.0 0.00 0.26 0.00 93 1013.7
20220808092003 74 0 0.0 0.0 0.00 0.26 0.00 93 1013.7
20220808091504 74 0 0.0 0.0 0.00 0.26 0.00 93 1013.8
20220808091005 74 0 0.0 0.0 0.00 0.26 0.00 93 1013.6
20220808090504 74 0 0.0 0.0 0.00 0.26 0.00 93 1013.6
20220808090004 74 0 0.0 0.0 0.00 0.26 0.00 93 1013.8
20220808085503 74 0 0.0 0.0 0.00 0.26 0.00 93 1013.7
20220808085003 74 0 0.0 0.0 0.00 0.26 0.00 93 1013.8
20220808084504 74 0 0.0 0.0 0.00 0.26 0.00 93 1013.7
20220808084003 74 0 0.0 0.0 0.00 0.26 0.00 93 1013.7
20220808083503 74 0 0.0 0.0 0.00 0.26 0.00 93 1013.8
20220808083005 74 0 0.0 0.0 0.00 0.26 0.00 93 1013.8
20220808082503 74 0 0.0 0.0 0.00 0.26 0.00 93 1013.6
20220808082004 74 0 0.0 0.0 0.00 0.26 0.00 93 1013.8
20220808081503 74 0 0.0 0.0 0.00 0.26 0.00 93 1013.6
20220808081003 74 0 0.0 0.0 0.00 0.26 0.00 93 1013.6
20220808080503 74 0 0.0 0.0 0.00 0.26 0.00 93 1013.6
20220808080004 74 0 0.0 0.0 0.00 0.26 0.00 93 1013.6
20220808075503 74 0 0.0 0.0 0.00 0.26 0.00 93 1013.7
20220808075003 74 0 0.0 0.0 0.00 0.26 0.00 93 1013.6
20220808074503 74 0 0.0 0.0 0.00 0.26 0.00 92 1013.7
20220808074003 74 0 0.0 0.0 0.00 0.26 0.00 92 1013.7
20220808073503 75 0 0.0 0.0 0.00 0.26 0.00 92 1013.8
20220808073003 75 0 0.0 0.0 0.00 0.26 0.00 91 1013.9
20220808072503 75 0 0.0 0.0 0.00 0.26 0.00 91 1013.9
20220808072003 75 0 0.0 0.0 0.00 0.26 0.00 91 1013.8
20220808071503 75 0 0.0 0.0 0.00 0.26 0.00 91 1013.8
20220808071003 75 0 0.0 0.0 0.00 0.26 0.00 90 1013.8
20220808070504 76 0 0.0 0.0 0.00 0.26 0.00 90 1013.9
20220808070004 76 0 0.0 0.0 0.00 0.26 0.00 90 1013.8
20220808065503 76 0 0.0 0.0 0.00 0.26 0.00 90 1014.0
20220808065003 76 0 0.0 0.0 0.00 0.26 0.00 89 1013.8
20220808064503 76 0 0.0 0.0 0.00 0.26 0.00 89 1014.0
20220808064004 76 0 0.0 0.0 0.00 0.26 0.00 88 1013.9
20220808063503 76 0 0.0 0.0 0.00 0.26 0.00 88 1013.9
20220808063003 77 0 0.0 0.0 0.00 0.26 0.00 87 1013.9
20220808062504 77 0 0.0 0.0 0.00 0.26 0.00 87 1014.1
20220808062003 77 0 0.0 0.0 0.00 0.26 0.00 86 1014.1
20220808061504 78 0 0.0 0.0 0.00 0.26 0.00 86 1014.2
20220808061003 78 0 0.0 0.0 0.00 0.26 0.00 85 1014.1
20220808060503 78 0 0.0 0.0 0.00 0.26 0.00 85 1014.1
20220808060004 78 177 0.0 1.0 0.00 0.26 0.00 85 1014.2
20220808055503 78 177 0.0 1.0 0.00 0.26 0.00 85 1014.2
20220808055005 78 177 0.0 4.0 0.00 0.26 0.00 84 1014.1
20220808054503 78 177 0.0 4.0 0.00 0.26 0.00 84 1014.1
20220808054003 78 0 0.0 0.0 0.00 0.26 0.00 84 1014.1
20220808053503 78 0 0.0 0.0 0.00 0.26 0.00 84 1014.2
20220808053004 78 0 0.0 0.0 0.00 0.26 0.00 84 1014.2
20220808052504 78 0 0.0 0.0 0.00 0.26 0.00 83 1014.2
20220808052003 78 175 0.0 3.0 0.00 0.26 0.00 83 1014.3
20220808051504 79 175 0.0 3.0 0.00 0.26 0.00 83 1014.4
20220808051004 79 0 0.0 0.0 0.00 0.26 0.00 83 1014.4
20220808050503 79 174 0.0 5.0 0.00 0.26 0.00 83 1014.3
20220808050005 79 174 0.0 5.0 0.00 0.26 0.00 83 1014.4
20220808045503 79 171 0.0 6.0 0.00 0.26 0.00 82 1014.4
20220808045003 79 171 0.0 6.0 0.00 0.26 0.00 83 1014.4
20220808044505 79 171 0.0 8.0 0.00 0.26 0.00 83 1014.5
20220808044003 79 171 0.0 8.0 0.00 0.26 0.00 83 1014.7
20220808043503 79 173 0.0 5.0 0.00 0.26 0.00 82 1014.5
20220808043004 79 173 0.0 6.0 0.00 0.26 0.00 83 1014.5
20220808042503 79 173 0.0 6.0 0.00 0.26 0.00 82 1014.4
20220808042003 79 174 0.0 1.0 0.00 0.26 0.00 83 1014.4